Location: Dzierzno
(50.6159°N, 19.2852°E)
Time: 06:54:46
(UTC+00:00)

SJ 16-02 - Pass Details

Date: 18 November 2025
Orbit: 585 x 594 km, 75.0° (Epoch: 06 December)

Event Time Altitude Azimuth Distance (km) Brightness Sun altitude
Rises 18:18:31 0° 237° (WSW) 2,830 5.4 -32.3°
Reaches altitude 10° 18:21:06 10° 252° (WSW) 1,932 4.6 -32.7°
Enters shadow 18:24:04 23° 294° (WNW) 1,282 3.5 -33.2°
